Location: ?ern� Novina
(50.6762°N, 14.8696°E)
Time: 12:41:24
(UTC+00:00)

Cosmos 2074 Rocket - Pass Details

Date: 03 March 2021
Orbit: 967 x 987 km, 82.9° (Epoch: 16 April)

Event Time Altitude Azimuth Distance (km) Brightness Sun altitude
Rises 17:34:33 0° 188° (S) 3,677 7.1 -8.6°
Reaches altitude 10° 17:37:03 10° 188° (S) 2,730 6.5 -9.0°
Maximum altitude 17:43:20 89° 276° (W) 987 4.1 -10.0°
Drops below altitude 10° 17:49:37 10° 10° (N) 2,735 6.3 -10.9°
Sets 17:52:08 0° 10° (N) 3,684 7.0 -11.3°
